Lid_Strength_Index
11 12 12 13 15 14 16 18 17 16 13 10 8 10 10 9 7 7 6 5 5 4 3 3 3 2 2 2 2 1 1 1
12 11 12 13 13 15 16 19 19 17 15 15 11 11 12 11 8 7 6 5 5 4 4 3 3 2 2 2 2 1 1 1
14 15 16 15 16 17 16 17 18 18 16 11 11 10 12 8 8 7 6 5 5 4 3 3 3 2 2 2 2 2 1 1
17 13 12 13 16 17 17 17 18 17 15 12 12 12 12 9 7 6 6 5 5 4 3 3 3 2 2 2 2 1 1 1
18 16 14 15 14 17 18 20 20 18 17 11 11 11 10 10 10 10 7 5 5 4 4 4 3 2 2 2 2 1 1 1
18 17 16 16 14 14 17 19 19 18 16 14 13 12 9 9 11 11 11 11 9 7 6 3 3 2 2 2 2 1 1 1
15 13 14 14 14 14 16 16 18 17 15 14 13 12 10 9 11 11 13 11 11 10 9 9 5 3 2 2 2 1 2 2
15 13 13 14 13 13 13 14 15 15 15 12 11 10 10 10 10 10 11 11 12 11 10 9 8 6 3 2 2 1 2 2
19 14 14 16 14 13 13 13 13 16 13 11 12 11 11 11 10 11 11 10 11 11 11 10 9 7 4 2 2 2 2 2
18 18 21 15 11 10 11 11 11 11 12 11 11 11 11 9 11 11 11 11 10 10 10 10 9 6 3 2 2 2 2 2
19 22 16 13 12 12 13 12 10 12 12 11 11 11 10 9 10 11 11 10 9 9 9 9 9 6 3 2 2 2 2 2
19 19 19 14 11 10 10 15 11 10 11 11 11 15 12 10 9 10 9 9 10 9 9 10 10 6 4 3 2 3 2 2
17 17 15 11 10 9 16 15 11 10 10 10 12 11 10 9 9 9 9 8 8 8 9 9 9 8 5 4 3 2 1 1
16 18 21 10 11 14 13 11 10 10 10 10 9 9 9 9 9 9 8 7 7 8 9 9 9 8 6 4 2 1 1 1
17 17 12 10 11 10 9 10 9 9 9 9 9 9 8 9 9 8 7 7 7 8 8 9 8 8 8 5 2 2 2 2
15 13 11 10 9 8 8 9 8 8 8 8 9 8 8 8 8 7 7 6 6 7 7 8 8 7 7 5 3 2 3 3
11 11 11 10 9 8 8 7 7 6 7 8 8 8 8 7 7 6 6 6 6 6 7 7 7 7 7 6 4 4 4 4
15 11 11 11 8 7 7 7 6 6 7 6 7 8 8 8 7 7 6 6 6 6 6 7 8 7 7 6 3 5 5 5
11 10 10 8 7 7 7 6 5 5 6 6 7 7 8 8 8 7 6 6 6 7 6 6 7 7 6 5 5 6 7 6